1488128400.64,22928,9.19,73050.0,-3.93,-5.93,-5.93,0,*5A
1488128401.91,22929,9.19,73056.0,-3.93,-5.81,-5.89,0,*53
1488128403.17,22930,9.19,73058.0,-3.95,-5.77,-5.89,0,*54
1488128404.42,22931,9.19,73046.5,-3.95,-5.81,-5.77,0,*5D
1488128405.67,22932,9.19,73048.3,-3.95,-5.77,-5.77,0,*57
1488128406.95,22933,9.19,73058.8,-3.97,-5.65,-5.65,0,*54
1488128408.23,22934,9.19,73048.5,-3.97,-5.65,-5.65,0,*53
1488128409.49,22935,9.19,73050.3,-3.97,-5.69,-5.51,0,*59
1488128410.74,22936,9.19,73066.3,-3.97,-5.55,-5.55,0,*51
1488128411.97,22937,9.19,73060.8,-3.97,-5.43,-5.51,0,*53
1488128413.2,22938,9.19,73062.8,-3.97,-5.51,-5.51,0,*5F
1488128414.49,22939,9.19,73066.0,-4.01,-5.69,-5.61,0,*5E
1488128415.73,22940,9.19,73060.3,-4.01,-5.55,-5.55,0,*58
1488128416.99,22941,9.19,73078.5,-3.99,-5.27,-5.27,0,*5F
1488128418.26,22942,9.19,73064.8,-4.01,-5.11,-5.19,0,*52
1488128419.47,22943,9.19,73062.8,-3.99,-5.43,-5.39,0,*50
1488128420.69,22944,9.19,73058.5,-3.99,-5.43,-5.31,0,*5F
1488128421.95,22945,9.19,73072.5,-3.99,-5.27,-5.27,0,*5B
1488128423.22,22946,9.19,73076.0,-3.99,-5.07,-5.15,0,*5B
1488128424.48,22947,9.19,73070.0,-3.99,-5.15,-5.15,0,*59
1488128425.74,22948,9.19,73068.5,-3.99,-5.27,-5.27,0,*56
1488128427.02,22949,9.19,73074.3,-3.97,-5.19,-5.27,0,*54
1488128428.31,22950,9.19,73056.8,-3.97,-5.19,-5.27,0,*5C
1488128429.57,22951,9.19,73060.8,-3.97,-5.39,-5.31,0,*58
1488128430.82,22952,9.19,73064.5,-3.95,-5.27,-5.27,0,*51
1488128432.09,22953,9.19,73064.5,-3.99,-5.31,-5.31,0,*5C
1488128433.35,22954,9.19,73066.8,-3.99,-5.27,-5.27,0,*5B
1488128434.63,22955,9.19,73070.3,-4.01,-5.23,-5.15,0,*59
1488128435.91,22956,9.19,73074.3,-4.01,-5.11,-5.19,0,*57
1488128437.17,22957,9.19,73078.5,-3.99,-5.15,-5.19,0,*54
1488128438.43,22958,9.19,73076.5,-3.99,-5.19,-5.27,0,*5A
1488128439.69,22959,9.19,73076.0,-3.99,-5.19,-5.19,0,*56
1488128440.97,22960,9.19,73070.8,-4.01,-5.11,-5.07,0,*5D
1488128442.23,22961,9.19,73068.5,-3.99,-5.07,-5.07,0,*5D
1488128443.48,22962,9.19,73050.8,-3.99,-4.93,-4.93,0,*5E
1488128444.74,22963,9.19,73052.5,-3.99,-5.03,-5.15,0,*58
1488128446.0,22964,9.19,73062.3,-3.99,-5.19,-5.19,0,*58
1488128447.26,22965,9.19,73064.5,-3.99,-5.27,-5.27,0,*59
1488128448.49,22966,9.19,73070.8,-3.99,-5.19,-5.39,0,*58
1488128449.77,22967,9.19,73072.3,-3.97,-5.27,-5.31,0,*52
1488128451.03,22968,9.19,73068.3,-3.99,-5.19,-5.27,0,*59
1488128452.32,22969,9.19,73070.3,-3.97,-5.19,-5.19,0,*5B
1488128453.55,22970,9.19,73064.0,-3.97,-5.39,-5.43,0,*5E
1488128454.75,22971,9.19,73076.3,-3.99,-5.43,-5.51,0,*5F
1488128455.99,22972,9.19,73068.0,-3.97,-5.51,-5.55,0,*55
1488128457.27,22973,9.19,73074.0,-3.97,-5.65,-5.73,0,*57
1488128458.54,22974,9.19,73086.8,-4.01,-5.73,-5.77,0,*5B
1488128459.77,22975,9.19,73078.3,-3.99,-5.97,-5.93,0,*5C
1488128460.97,22976,9.19,73070.5,-3.99,-6.05,-5.97,0,*53
1488128462.2,22977,9.19,73058.5,-3.99,-5.97,-5.93,0,*5E
1488128463.43,22978,9.19,73054.0,-3.99,-5.97,-5.81,0,*52
1488128464.71,22979,9.19,73054.0,-4.01,-5.85,-5.73,0,*5B
1488128465.98,22980,9.19,73068.0,-4.01,-5.73,-5.69,0,*5F
1488128467.23,22981,9.19,73060.5,-4.01,-5.61,-5.43,0,*55
1488128468.49,22982,9.19,73054.5,-4.03,-5.31,-5.19,0,*5E
1488128469.72,22983,9.19,73048.8,-4.05,-5.27,-5.35,0,*50
1488128470.92,22984,9.19,73054.5,-4.03,-5.35,-5.35,0,*52
1488128472.12,22985,9.19,73064.5,-4.03,-5.43,-5.43,0,*53
1488128473.38,22986,9.19,73062.8,-4.03,-5.23,-5.23,0,*50
1488128474.64,22987,9.19,73060.3,-4.03,-5.23,-5.23,0,*51
1488128475.84,22988,9.19,73058.3,-4.05,-5.35,-5.35,0,*58
1488128477.04,22989,9.19,73054.3,-4.03,-5.35,-5.43,0,*5E
1488128478.3,22990,9.19,73064.5,-4.03,-5.31,-5.31,0,*57
1488128479.55,22991,9.19,73064.8,-4.03,-5.11,-5.23,0,*57
1488128480.81,22992,9.19,73066.3,-4.03,-5.07,-5.07,0,*55
1488128482.07,22993,9.19,73068.3,-4.03,-5.07,-5.19,0,*5B
1488128483.34,22994,9.19,73068.0,-4.05,-5.15,-5.27,0,*54
1488128484.59,22995,9.19,73072.0,-4.03,-5.11,-5.23,0,*53
1488128485.8,22996,9.19,73052.8,-4.05,-5.39,-5.51,0,*59
1488128487.06,22997,9.19,73062.0,-4.05,-5.61,-5.61,0,*56
1488128488.31,22998,9.19,73062.3,-4.05,-5.65,-5.65,0,*59
1488128489.53,22999,9.19,73066.3,-4.03,-5.55,-5.55,0,*5E
1488128490.73,23000,9.19,73038.8,-4.05,-5.47,-5.47,0,*50
1488128491.94,23001,9.19,73028.0,-4.05,-5.39,-5.39,0,*51
1488128493.14,23002,9.19,73042.0,-4.05,-5.35,-5.39,0,*5E
1488128494.35,23003,9.19,73056.3,-4.05,-5.39,-5.39,0,*53
1488128495.58,23004,9.19,73050.5,-4.03,-5.23,-5.35,0,*55
1488128496.84,23005,9.19,73044.5,-4.05,-5.15,-5.27,0,*54
1488128498.1,23006,9.19,73050.5,-4.03,-5.11,-5.07,0,*57
1488128499.35,23007,9.19,73024.8,-4.05,-4.89,-4.81,0,*5F
1488128500.56,23008,9.19,73030.8,-4.03,-4.57,-4.41,0,*59
1488128501.77,23009,9.19,72990.8,-4.05,-3.83,-3.83,0,*59
1488128502.96,23010,9.19,72950.3,-4.03,-4.45,-4.53,0,*50
1488128504.22,23011,9.19,72988.8,-4.03,-5.19,-5.19,0,*56
1488128505.48,23012,9.19,73006.0,-4.03,-5.31,-5.19,0,*5F
1488128506.74,23013,9.19,73010.3,-4.05,-5.23,-5.23,0,*52
1488128508.0,23014,9.19,73032.3,-4.05,-5.23,-5.15,0,*50
1488128509.26,23015,9.19,73030.5,-4.03,-5.19,-5.07,0,*5D
1488128510.52,23016,9.19,73044.8,-4.05,-5.11,-5.03,0,*54
1488128511.77,23017,9.19,73032.5,-4.03,-4.93,-4.85,0,*57
1488128513.02,23018,9.19,73040.8,-4.05,-4.85,-4.81,0,*5D
1488128514.27,23019,9.19,73052.5,-4.05,-4.85,-4.85,0,*58
1488128515.47,23020,9.19,73052.3,-4.05,-4.57,-4.45,0,*51
1488128516.67,23021,9.19,73056.5,-4.03,-4.17,-4.17,0,*55
1488128517.86,23022,9.19,73042.5,-4.03,-4.17,-4.17,0,*56
1488128519.07,23023,9.19,73052.5,-4.03,-4.41,-4.29,0,*59
1488128520.29,23024,9.19,73048.3,-4.01,-4.53,-4.45,0,*55
1488128521.49,23025,9.19,73050.5,-3.99,-4.49,-4.37,0,*5C
1488128522.69,23026,9.19,73064.5,-3.99,-4.41,-4.29,0,*58
1488128523.98,23027,9.19,73064.0,-4.01,-4.01,-4.01,0,*51
1488128525.18,23028,9.19,73054.8,-3.99,-4.29,-4.29,0,*58
1488128526.38,23029,9.19,73048.0,-3.99,-4.37,-4.17,0,*5B
1488128527.63,23030,9.19,73048.8,-3.99,-3.63,-3.47,0,*57
1488128528.88,23031,9.19,73048.8,-3.99,-3.63,-3.59,0,*59
1488128530.16,23032,9.19,73052.0,-3.97,-3.63,-3.51,0,*5C
1488128531.39,23033,9.19,73058.8,-3.95,-4.01,-3.95,0,*54
1488128532.59,23034,9.19,73060.3,-3.95,-4.13,-4.13,0,*59
1488128533.81,23035,9.19,73062.3,-3.93,-4.49,-4.33,0,*53
1488128535.02,23036,9.19,73056.3,-3.93,-4.45,-4.33,0,*5C
1488128536.25,23037,9.19,73060.5,-3.93,-4.61,-4.57,0,*59
1488128537.52,23038,9.19,73056.0,-3.93,-4.89,-4.73,0,*56
1488128538.78,23039,9.19,73066.3,-3.91,-5.07,-4.85,0,*5B
1488128539.99,23040,9.19,73064.5,-3.93,-4.99,-4.99,0,*5C
1488128541.19,23041,9.19,73058.5,-3.95,-4.99,-4.99,0,*5B
1488128542.43,23042,9.19,73062.3,-3.95,-4.85,-4.77,0,*55
1488128543.68,23043,9.19,73070.0,-3.95,-4.89,-4.85,0,*55
1488128544.95,23044,9.19,73040.0,-3.93,-4.89,-4.85,0,*54
1488128546.2,23045,9.19,73042.5,-3.95,-4.89,-4.85,0,*53
1488128547.43,23046,9.19,73024.5,-3.95,-5.03,-4.99,0,*5E
1488128548.71,23047,9.19,73010.8,-3.97,-5.03,-4.93,0,*57
1488128549.94,23048,9.19,73014.3,-3.95,-4.99,-4.89,0,*53
1488128551.18,23049,9.19,73048.8,-3.95,-4.85,-4.77,0,*5E
1488128552.45,23050,9.19,73046.0,-3.93,-4.77,-4.69,0,*52
1488128553.67,23051,9.19,73044.8,-3.95,-4.81,-4.57,0,*51
1488128554.89,23052,9.19,73042.8,-3.95,-3.83,-3.71,0,*54
1488128556.09,23053,9.19,73038.0,-3.91,-3.39,-3.31,0,*54
1488128557.31,23054,9.19,73016.3,-3.93,-3.35,-3.23,0,*5E
1488128558.51,23055,9.19,73012.5,-3.91,-3.31,-3.19,0,*50
1488128559.71,23056,9.19,73004.3,-3.91,-3.31,-3.27,0,*5E
1488128560.95,23057,9.19,73000.5,-3.89,-3.79,-3.75,0,*5D
1488128562.15,23058,9.19,72996.3,-3.87,-3.91,-3.91,0,*50
1488128563.35,23059,9.19,73004.8,-3.87,-4.13,-4.13,0,*51
1488128564.55,23060,9.19,73036.8,-3.83,-4.13,-4.13,0,*5F
1488128565.75,23061,9.19,73032.3,-3.83,-4.61,-4.49,0,*54
1488128566.95,23062,9.19,73026.8,-3.83,-4.65,-4.65,0,*5D
1488128568.19,23063,9.19,73030.0,-3.87,-4.93,-4.89,0,*53
1488128569.43,23064,9.19,73026.0,-3.87,-4.93,-4.93,0,*5F
1488128570.68,23065,9.19,73032.5,-3.87,-5.03,-5.03,0,*5E
1488128571.94,23066,9.19,73032.0,-3.87,-5.03,-5.07,0,*59
1488128573.22,23067,9.19,73040.0,-3.89,-4.93,-5.07,0,*5E
1488128574.47,23068,9.19,73048.0,-3.87,-5.03,-5.03,0,*53
1488128575.73,23069,9.19,73034.8,-3.87,-5.27,-5.27,0,*52
1488128577.01,23070,9.19,73042.3,-3.89,-5.19,-5.19,0,*54
1488128578.29,23071,9.19,73046.0,-3.89,-5.19,-5.19,0,*55
1488128579.51,23072,9.19,73048.0,-3.89,-5.43,-5.43,0,*56
1488128580.74,23073,9.19,73034.0,-3.89,-5.35,-5.35,0,*57
1488128581.99,23074,9.19,73042.3,-3.89,-5.43,-5.31,0,*55
1488128583.22,23075,9.19,73056.8,-3.89,-5.35,-5.35,0,*51
1488128584.47,23076,9.19,73060.0,-3.89,-5.35,-5.31,0,*56
1488128585.67,23077,9.19,73066.8,-3.91,-5.35,-5.35,0,*5A
1488128586.89,23078,9.19,73056.8,-3.91,-5.43,-5.31,0,*50
1488128588.11,23079,9.19,73064.3,-3.91,-5.43,-5.31,0,*51
1488128589.39,23080,9.19,73060.5,-3.89,-5.19,-5.11,0,*53
1488128590.65,23081,9.19,73064.8,-3.91,-5.23,-5.11,0,*52
1488128591.93,23082,9.19,73066.3,-3.93,-5.15,-5.03,0,*55
1488128593.21,23083,9.19,73074.0,-3.93,-5.03,-4.89,0,*50
1488128594.46,23084,9.19,73076.3,-3.93,-4.99,-4.89,0,*55
1488128595.7,23085,9.19,73070.3,-3.91,-4.85,-4.81,0,*53
1488128596.97,23086,9.19,73072.8,-3.93,-4.89,-4.77,0,*57
1488128598.24,23087,9.19,73072.3,-3.93,-4.77,-4.77,0,*57
1488128599.46,23088,9.19,73082.0,-3.93,-4.57,-4.45,0,*5B
1488128600.68,23089,9.19,73078.8,-3.93,-4.45,-4.25,0,*5F
1488128601.9,23090,9.19,73066.3,-3.93,-4.45,-4.37,0,*54
1488128603.1,23091,9.19,73080.5,-3.91,-4.57,-4.57,0,*52
1488128604.3,23092,9.19,73074.0,-3.91,-3.87,-3.87,0,*51
1488128605.51,23093,9.19,73076.8,-3.91,-3.79,-3.79,0,*50
1488128606.71,23094,9.19,73074.3,-3.91,-3.95,-3.95,0,*57
1488128607.91,23095,9.19,73076.3,-3.91,-3.95,-3.95,0,*56
1488128609.11,23096,9.19,73084.8,-3.91,-4.09,-4.33,0,*5C
1488128610.36,23097,9.19,73090.0,-3.89,-4.57,-4.81,0,*56
1488128611.61,23098,9.19,73080.3,-3.89,-4.99,-5.19,0,*5B
1488128612.89,23099,9.19,73078.3,-3.89,-5.11,-5.23,0,*52
1488128614.17,23100,9.19,73070.5,-3.89,-5.11,-5.19,0,*5A
1488128615.39,23101,9.19,73076.0,-3.89,-4.99,-4.99,0,*53
1488128616.64,23102,9.19,73064.8,-3.89,-5.07,-4.99,0,*56
1488128617.92,23103,9.19,73080.8,-3.89,-4.85,-4.85,0,*51
1488128619.14,23104,9.19,73084.3,-3.89,-4.99,-4.99,0,*56
1488128620.36,23105,9.19,73084.3,-3.89,-5.35,-5.35,0,*57
1488128621.6,23106,9.19,73086.8,-3.89,-5.55,-5.47,0,*57
1488128622.86,23107,9.19,73086.0,-3.89,-5.55,-5.61,0,*52
1488128624.09,23108,9.19,73080.5,-3.89,-5.47,-5.47,0,*5A
1488128625.37,23109,9.19,73082.5,-3.89,-5.31,-5.31,0,*5B
1488128626.63,23110,9.19,73082.3,-3.91,-5.23,-5.23,0,*5A
1488128627.89,23111,9.19,73080.5,-3.91,-5.23,-5.23,0,*5B
1488128629.11,23112,9.19,73076.8,-3.91,-5.31,-5.35,0,*5C
1488128630.34,23113,9.19,73072.8,-3.93,-5.39,-5.39,0,*5B
1488128631.59,23114,9.19,73074.8,-3.93,-5.27,-5.35,0,*5F
1488128632.87,23115,9.19,73076.5,-3.93,-5.23,-5.27,0,*59
1488128634.15,23116,9.19,73064.5,-3.93,-5.23,-5.27,0,*5A
1488128635.41,23117,9.19,73068.5,-3.91,-5.31,-5.31,0,*5D
1488128636.63,23118,9.19,73070.8,-3.93,-5.47,-5.39,0,*59
1488128637.87,23119,9.19,73070.5,-3.93,-5.51,-5.51,0,*51
1488128639.12,23120,9.19,73066.0,-3.91,-5.65,-5.61,0,*5D
1488128640.39,23121,9.19,73072.3,-3.93,-5.77,-5.65,0,*59
1488128641.65,23122,9.19,73074.5,-3.93,-5.65,-5.51,0,*5E
1488128642.85,23123,9.19,73070.3,-3.95,-5.51,-5.39,0,*50
1488128644.05,23124,9.19,73070.3,-3.95,-5.47,-5.39,0,*50
1488128645.31,23125,9.19,73064.3,-3.95,-5.27,-5.27,0,*58
1488128646.58,23126,9.19,73066.5,-3.97,-4.93,-4.93,0,*59
1488128647.84,23127,9.19,73070.3,-3.95,-5.15,-5.15,0,*5A
1488128649.13,23128,9.19,73070.8,-3.97,-5.15,-5.07,0,*54
1488128650.41,23129,9.19,73074.5,-3.97,-5.19,-5.15,0,*5A
1488128651.7,23130,9.19,73068.0,-3.97,-5.15,-5.07,0,*5D
1488128652.99,23131,9.19,73074.0,-3.97,-5.07,-5.03,0,*5B
1488128654.27,23132,9.19,73074.3,-3.97,-5.03,-4.93,0,*54
1488128655.52,23133,9.19,73074.8,-3.95,-4.85,-4.85,0,*5F
1488128656.8,23134,9.19,73072.0,-3.97,-5.27,-5.19,0,*57
1488128658.09,23135,9.19,73078.3,-3.97,-5.19,-5.27,0,*56
1488128659.38,23136,9.19,73084.0,-3.97,-5.19,-5.19,0,*58
1488128660.63,23137,9.19,73074.3,-3.95,-4.89,-4.85,0,*57
1488128661.91,23138,9.19,73070.0,-3.97,-5.03,-4.93,0,*5E
1488128663.16,23139,9.19,73080.0,-3.95,-5.11,-5.03,0,*56
1488128664.44,23140,9.19,73086.8,-3.97,-4.93,-4.89,0,*52
1488128665.71,23141,9.19,73082.0,-3.97,-4.81,-4.77,0,*51
1488128666.96,23142,9.19,73070.0,-3.95,-4.77,-4.73,0,*5D
1488128668.24,23143,9.19,73066.3,-3.97,-4.89,-4.89,0,*5A
1488128669.48,23144,9.19,73060.5,-3.95,-4.85,-4.89,0,*53
1488128670.77,23145,9.19,73058.0,-3.97,-5.19,-5.15,0,*50
1488128672.05,23146,9.19,73068.3,-3.97,-5.19,-5.19,0,*5F
1488128673.34,23147,9.19,73078.0,-3.97,-5.31,-5.27,0,*59
1488128674.63,23148,9.19,73080.3,-3.97,-5.19,-5.27,0,*5C
1488128675.86,23149,9.19,73076.8,-3.97,-5.39,-5.39,0,*50
1488128677.15,23150,9.19,73090.5,-3.97,-5.31,-5.31,0,*58
1488128678.41,23151,9.19,73086.3,-3.99,-5.15,-5.19,0,*5B
1488128679.67,23152,9.19,73070.3,-3.99,-5.07,-5.07,0,*54
1488128680.93,23153,9.19,73070.0,-3.99,-5.27,-5.15,0,*54
1488128682.21,23154,9.19,73070.8,-4.01,-5.31,-5.31,0,*54
1488128683.48,23155,9.19,73080.0,-3.99,-5.15,-5.03,0,*54
1488128684.73,23156,9.19,73090.3,-3.99,-5.07,-4.93,0,*5C
1488128685.99,23157,9.19,73092.5,-3.99,-4.89,-4.77,0,*50
1488128687.23,23158,9.19,73092.0,-3.99,-4.81,-4.77,0,*57
1488128688.51,23159,9.19,73092.0,-3.97,-4.73,-4.77,0,*55
1488128689.76,23160,9.19,73092.8,-3.97,-4.73,-4.65,0,*5C
1488128691.02,23161,9.19,73092.8,-3.97,-4.73,-4.65,0,*5D
1488128692.29,23162,9.19,73084.8,-3.97,-4.73,-4.73,0,*59
1488128693.57,23163,9.19,73076.8,-3.97,-4.81,-4.81,0,*58
1488128694.84,23164,9.19,73082.3,-3.97,-4.77,-4.77,0,*5F
1488128696.07,23165,9.19,73084.0,-3.97,-4.65,-4.61,0,*5A
1488128697.33,23166,9.19,73094.5,-3.97,-4.73,-4.65,0,*5A
1488128698.56,23167,9.19,73082.3,-3.97,-4.41,-4.49,0,*54
1488128699.75,23168,9.19,73074.8,-3.95,-4.45,-4.37,0,*54
1488128700.98,23169,9.19,73074.0,-3.97,-4.49,-4.49,0,*52
1488128702.18,23170,9.19,73070.8,-3.95,-4.37,-4.25,0,*5B
1488128703.37,23171,9.19,73066.3,-3.95,-4.61,-4.49,0,*53
1488128704.6,23172,9.19,73062.3,-3.97,-4.53,-4.53,0,*58
1488128705.81,23173,9.19,73058.0,-3.95,-4.65,-4.53,0,*5E
1488128707.04,23174,9.19,73078.8,-3.97,-4.61,-4.53,0,*5F
1488128708.23,23175,9.19,73066.8,-3.95,-4.45,-4.45,0,*5D
1488128709.42,23176,9.19,73086.3,-3.95,-4.45,-4.45,0,*5E
1488128710.64,23177,9.19,73086.3,-3.97,-4.49,-4.49,0,*5D
1488128711.87,23178,9.19,73076.5,-3.97,-4.37,-4.37,0,*52
1488128713.1,23179,9.19,73076.5,-3.93,-4.21,-4.25,0,*53
1488128714.34,23180,9.19,73082.5,-3.93,-4.33,-4.21,0,*52
1488128715.57,23181,9.19,73086.0,-3.93,-4.25,-4.21,0,*54
1488128716.79,23182,9.19,73090.3,-3.93,-4.13,-4.09,0,*58
1488128718.02,23183,9.19,73092.5,-3.93,-3.95,-3.91,0,*56
1488128719.26,23184,9.19,73090.0,-3.93,-3.91,-3.83,0,*56
1488128720.46,23185,9.19,73086.3,-3.91,-3.79,-3.79,0,*56
1488128721.67,23186,9.19,73090.3,-3.91,-3.75,-3.75,0,*55
1488128722.87,23187,9.19,73098.3,-3.91,-3.87,-3.79,0,*55
1488128724.11,23188,9.19,73094.0,-3.89,-3.79,-3.79,0,*52
1488128725.38,23189,9.19,73074.0,-3.89,-3.67,-3.67,0,*53
1488128726.63,23190,9.19,73080.8,-3.89,-3.51,-3.39,0,*55
1488128727.85,23191,9.19,73086.3,-3.87,-3.47,-3.39,0,*5D
1488128729.1,23192,9.19,73080.0,-3.87,-3.59,-3.47,0,*58
1488128730.32,23193,9.19,73076.5,-3.83,-3.35,-3.43,0,*53
1488128731.56,23194,9.19,73064.0,-3.83,-3.43,-3.47,0,*51
1488128732.83,23195,9.19,73072.3,-3.81,-3.59,-3.59,0,*56
1488128734.07,23196,9.19,73064.0,-3.79,-3.67,-3.67,0,*52
1488128735.3,23197,9.19,73060.5,-3.77,-3.83,-3.83,0,*5D
1488128736.49,23198,9.19,73066.5,-3.79,-4.05,-4.09,0,*50
1488128737.69,23199,9.19,73064.5,-3.79,-4.33,-4.41,0,*58
1488128738.89,23200,9.19,73072.5,-3.79,-4.33,-4.41,0,*5B
1488128740.08,23201,9.19,73076.3,-3.79,-4.45,-4.41,0,*5B
1488128741.29,23202,9.19,73070.5,-3.77,-4.45,-4.45,0,*52
1488128742.53,23203,9.25,73068.8,-3.79,-4.85,-4.85,0,*5D
1488128743.77,23204,9.19,73074.0,-3.79,-4.93,-4.93,0,*5A
1488128745.01,23205,9.19,73086.3,-3.79,-4.73,-4.81,0,*56
1488128746.26,23206,9.19,73094.5,-3.79,-4.85,-4.85,0,*58
1488128747.51,23207,9.19,73088.5,-3.79,-5.07,-5.11,0,*5E
1488128748.72,23208,9.19,73084.8,-3.79,-4.99,-4.93,0,*5C
1488128749.97,23209,9.19,73084.3,-3.79,-4.81,-4.81,0,*57
1488128751.21,23210,9.19,73082.5,-3.81,-4.99,-5.11,0,*59
1488128752.5,23211,9.19,73074.8,-3.81,-5.15,-5.23,0,*5C
1488128753.75,23212,9.19,73074.5,-3.79,-5.31,-5.31,0,*5D
1488128754.97,23213,9.19,73076.5,-3.81,-5.39,-5.47,0,*52
1488128756.21,23214,9.19,73062.0,-3.81,-5.51,-5.55,0,*58
1488128757.41,23215,9.25,73054.5,-3.83,-5.47,-5.51,0,*58
1488128758.61,23216,9.19,73048.3,-3.83,-5.39,-5.51,0,*52
1488128759.81,23217,9.19,73046.0,-3.83,-5.47,-5.47,0,*5D
1488128761.03,23218,9.19,73066.3,-3.87,-5.43,-5.61,0,*56
1488128762.23,23219,9.19,73066.8,-3.87,-5.51,-5.43,0,*54
1488128763.42,23220,9.19,73072.3,-3.87,-5.43,-5.43,0,*5D
1488128764.71,23221,9.19,73064.3,-3.89,-5.23,-5.19,0,*5B
1488128765.99,23222,9.19,73100.0,-3.89,-5.23,-5.19,0,*58
1488128767.27,23223,9.19,73108.5,-3.89,-5.19,-5.19,0,*50
1488128768.56,23224,9.19,73100.5,-3.89,-5.23,-5.11,0,*56
1488128769.81,23225,9.19,73094.3,-3.89,-4.69,-4.65,0,*5A
1488128771.08,23226,9.19,73074.0,-3.89,-4.69,-4.69,0,*55
1488128772.35,23227,9.19,73072.3,-3.89,-4.69,-4.73,0,*5F
1488128773.63,23228,9.19,73060.0,-3.89,-5.07,-5.19,0,*54
1488128774.89,23229,9.19,73048.3,-3.89,-5.23,-5.35,0,*5D
1488128776.14,23230,9.19,73052.8,-3.89,-5.31,-5.43,0,*57
1488128777.43,23231,9.25,73066.0,-3.89,-5.23,-5.23,0,*53
1488128778.62,23232,9.19,73066.8,-3.91,-4.53,-4.53,0,*59
1488128779.83,23233,9.25,73078.0,-3.91,-3.91,-3.87,0,*5F
1488128781.08,23234,9.19,73076.3,-3.87,-4.01,-4.01,0,*58
1488128782.29,23235,9.19,73078.8,-3.87,-4.25,-4.25,0,*59
1488128783.52,23236,9.25,73082.8,-3.89,-4.57,-4.65,0,*55
1488128784.72,23237,9.19,73082.5,-3.87,-4.61,-4.61,0,*5B
1488128785.91,23238,9.19,73100.8,-3.87,-4.49,-4.61,0,*5E
1488128787.18,23239,9.19,73102.8,-3.89,-4.69,-4.69,0,*5B
1488128788.43,23240,9.25,73106.3,-3.87,-4.81,-4.81,0,*5B
1488128789.68,23241,9.19,73096.8,-3.87,-5.03,-4.93,0,*52
1488128790.96,23242,9.19,73100.5,-3.89,-5.11,-5.07,0,*50
1488128792.2,23243,9.19,73088.3,-3.87,-4.93,-4.93,0,*58
1488128793.39,23244,9.19,73058.0,-3.87,-4.49,-4.41,0,*57
1488128794.62,23245,9.19,73038.0,-3.89,-4.17,-4.21,0,*55
1488128795.82,23246,9.19,73050.3,-3.83,-4.61,-4.65,0,*5D
1488128797.06,23247,9.19,73056.8,-3.87,-4.69,-4.69,0,*5C
1488128798.3,23248,9.25,73070.8,-3.87,-4.69,-4.69,0,*53
1488128799.53,23249,9.25,73070.3,-3.89,-4.65,-4.65,0,*5C
1488128800.73,23250,9.19,73074.8,-3.87,-4.65,-4.61,0,*5E
1488128801.93,23251,9.25,73068.8,-3.83,-4.61,-4.61,0,*5F
1488128803.17,23252,9.25,73062.8,-3.83,-4.73,-4.73,0,*5C
1488128804.41,23253,9.25,73072.8,-3.83,-4.85,-4.73,0,*54
1488128805.66,23254,9.19,73076.3,-3.83,-5.11,-5.11,0,*5A
1488128806.92,23255,9.19,73072.0,-3.87,-5.07,-5.07,0,*5F
1488128808.17,23256,9.19,73082.3,-3.87,-5.15,-5.15,0,*5C
1488128809.37,23257,9.19,73080.5,-3.87,-4.65,-4.65,0,*5D
1488128810.57,23258,9.19,73046.0,-3.87,-3.91,-3.83,0,*51
1488128811.76,23259,9.19,73068.3,-3.87,-4.29,-4.17,0,*5E
1488128812.96,23260,9.19,73082.0,-3.87,-4.29,-4.13,0,*50
1488128814.18,23261,9.19,73084.3,-3.87,-3.87,-3.71,0,*51
1488128815.39,23262,9.19,73078.3,-3.87,-3.75,-3.75,0,*5B
1488128816.61,23263,9.19,73082.0,-3.81,-3.87,-3.87,0,*5C
1488128817.8,23264,9.19,73078.0,-3.83,-3.19,-3.19,0,*59
1488128819.02,23265,9.19,73074.8,-3.81,-3.07,-3.07,0,*5A
1488128820.22,23266,9.25,73080.3,-3.79,-3.03,-3.03,0,*5E
1488128821.45,23267,9.25,73096.8,-3.77,-3.27,-3.27,0,*51
1488128822.67,23268,9.25,73104.8,-3.77,-3.39,-3.31,0,*56
1488128823.91,23269,9.25,73026.0,-3.77,-3.67,-3.75,0,*5C
1488128825.15,23270,9.19,73012.5,-3.73,-3.91,-3.91,0,*53
1488128826.39,23271,9.25,73054.8,-3.75,-3.63,-3.71,0,*57
1488128827.66,23272,9.19,73064.8,-3.73,-3.71,-3.71,0,*51
1488128828.89,23273,9.19,73072.8,-3.73,-3.79,-3.87,0,*51
1488128830.15,23274,9.19,73070.5,-3.71,-4.01,-4.13,0,*56
1488128831.38,23275,9.19,73068.8,-3.73,-4.29,-4.37,0,*59
1488128832.61,23276,9.25,73070.5,-3.73,-4.29,-4.37,0,*5A
1488128833.83,23277,9.25,73070.0,-3.73,-4.53,-4.53,0,*54
1488128835.06,23278,9.19,73068.0,-3.73,-4.37,-4.37,0,*5B
1488128836.29,23279,9.25,73080.5,-3.73,-4.29,-4.29,0,*5A
1488128837.51,23280,9.25,73072.0,-3.73,-4.25,-4.17,0,*5D
1488128838.74,23281,9.25,73068.8,-3.73,-4.13,-4.13,0,*5D
1488128839.97,23282,9.19,73062.3,-3.73,-3.79,-3.87,0,*5F
1488128841.23,23283,9.25,73056.5,-3.73,-3.91,-4.01,0,*51
1488128842.46,23284,9.19,73032.0,-3.73,-4.13,-4.25,0,*5D
1488128843.67,23285,9.25,73034.8,-3.71,-4.45,-4.45,0,*5B
1488128844.9,23286,9.19,73046.5,-3.71,-4.61,-4.61,0,*58
1488128846.12,23287,9.25,73056.3,-3.71,-4.61,-4.65,0,*5D
1488128847.34,23288,9.25,73076.3,-3.71,-4.61,-4.65,0,*52
1488128848.57,23289,9.25,73064.3,-3.71,-4.61,-4.65,0,*53
1488128849.83,23290,9.19,73046.5,-3.71,-4.77,-4.85,0,*52
1488128851.07,23291,9.25,73036.8,-3.71,-4.89,-4.99,0,*5F
1488128852.34,23292,9.19,73048.0,-3.71,-4.73,-4.77,0,*59
1488128853.56,23293,9.25,73032.3,-3.69,-4.73,-4.65,0,*52
1488128854.78,23294,9.25,73014.8,-3.71,-4.61,-4.65,0,*5F
1488128856.01,23295,9.19,73018.0,-3.73,-4.41,-4.57,0,*5F
1488128857.24,23296,9.25,73022.0,-3.73,-4.65,-4.65,0,*5B
1488128858.46,23297,9.19,73028.5,-3.73,-4.17,-4.17,0,*5A
1488128859.69,23298,9.25,73028.0,-3.73,-4.37,-4.37,0,*55
1488128860.92,23299,9.19,73024.3,-3.73,-4.53,-4.53,0,*54
1488128862.16,23300,9.25,73040.3,-3.69,-3.67,-3.67,0,*5E
1488128863.37,23301,9.25,73050.8,-3.69,-3.75,-3.75,0,*5F
1488128864.58,23302,9.19,73044.8,-3.69,-4.21,-4.21,0,*5C
1488128865.79,23303,9.19,73050.5,-3.69,-4.25,-4.21,0,*59
1488128867.0,23304,9.25,73052.5,-3.69,-3.95,-3.87,0,*59
1488128868.23,23305,9.19,73050.3,-3.71,-4.21,-4.21,0,*52
1488128869.42,23306,9.19,73052.0,-3.69,-4.45,-4.53,0,*5F
1488128870.68,23307,9.25,73056.3,-3.67,-4.61,-4.69,0,*5F
1488128871.95,23308,9.25,73060.5,-3.67,-4.85,-4.85,0,*58
1488128873.22,23309,9.19,73066.3,-3.67,-4.85,-4.93,0,*5E
1488128874.43,23310,9.25,73074.5,-3.71,-4.99,-4.99,0,*56
1488128875.66,23311,9.19,73072.5,-3.69,-4.99,-5.03,0,*5C
1488128876.88,23312,9.25,73072.8,-3.69,-4.99,-5.11,0,*5C
1488128878.14,23313,9.19,73072.0,-3.69,-4.89,-5.03,0,*5F
1488128879.33,23314,9.25,73074.5,-3.69,-4.99,-4.99,0,*5B
1488128880.58,23315,9.25,73068.5,-3.69,-4.89,-4.89,0,*5A
1488128881.82,23316,9.25,73074.0,-3.71,-4.89,-4.99,0,*51
1488128883.1,23317,9.19,73068.5,-3.71,-5.03,-5.11,0,*52
1488128884.35,23318,9.19,73064.0,-3.69,-5.11,-5.11,0,*57
1488128885.59,23319,9.25,73068.3,-3.71,-4.99,-4.89,0,*5E
1488128886.84,23320,9.25,73068.5,-3.71,-4.99,-5.03,0,*57
1488128888.05,23321,9.19,73068.8,-3.71,-4.99,-4.99,0,*54
1488128889.27,23322,9.19,73068.8,-3.71,-4.99,-4.99,0,*57
1488128890.49,23323,9.19,73064.0,-3.69,-4.89,-4.99,0,*5E
1488128891.76,23324,9.25,73068.0,-3.71,-5.11,-5.11,0,*51
1488128893.04,23325,9.19,73070.3,-3.71,-5.15,-5.15,0,*50
1488128894.31,23326,9.25,73076.5,-3.71,-5.11,-5.15,0,*57
1488128895.59,23327,9.19,73076.5,-3.71,-5.23,-5.27,0,*56
1488128896.83,23328,9.25,73082.0,-3.71,-5.27,-5.39,0,*52
1488128898.06,23329,9.25,73078.0,-3.71,-5.35,-5.55,0,*5A
1488128899.28,23330,9.25,73076.5,-3.71,-5.39,-5.43,0,*59
1488128900.5,23331,9.25,73080.5,-3.71,-5.35,-5.39,0,*59
1488128901.72,23332,9.25,73082.5,-3.73,-5.43,-5.39,0,*59
1488128902.98,23333,9.25,73078.3,-3.73,-5.31,-5.43,0,*50
1488128904.19,23334,9.25,73076.3,-3.75,-5.55,-5.55,0,*54
1488128905.42,23335,9.19,73074.8,-3.75,-5.55,-5.61,0,*52
1488128906.65,23336,9.19,73074.8,-3.75,-5.55,-5.61,0,*51
1488128907.86,23337,9.25,73076.3,-3.75,-5.55,-5.55,0,*57
1488128909.12,23338,9.19,73074.5,-3.75,-5.27,-5.27,0,*58
1488128910.4,23339,9.19,73076.3,-3.73,-5.27,-5.19,0,*52
1488128911.62,23340,9.25,73074.0,-3.75,-5.39,-5.31,0,*5F
1488128912.88,23341,9.19,73070.0,-3.75,-5.31,-5.31,0,*56
1488128914.1,23342,9.19,73070.0,-3.77,-5.47,-5.47,0,*57
1488128915.32,23343,9.25,73070.5,-3.77,-5.47,-5.51,0,*51
1488128916.52,23344,9.19,73074.5,-3.79,-5.51,-5.43,0,*5C
1488128917.74,23345,9.25,73074.3,-3.77,-5.47,-5.35,0,*55
1488128918.94,23346,9.19,73074.0,-3.79,-5.35,-5.35,0,*5D
1488128920.14,23347,9.19,73070.5,-3.79,-5.35,-5.35,0,*5C
1488128921.39,23348,9.25,73082.0,-3.79,-5.23,-5.23,0,*53